Weather in Severnoye

Russia / Omsk Oblast     54°59′39″N   72°06′53″E
temp.,
°C
wind,
m/s
gust,
m/s
humid.,
%
clouds,
%
prec.,
mm/h
press.,
hPa
HPBL,
m
11 april, sun
sun1100:00−2e24967 0.0 104269
03:00−2ese249847 0.0 104294
06:00−2se3497100 0.0 1043185
09:00−1sse3495100 0.0 1043280
12:00+1s3397100 0.0 1043331
15:00+2ssw238931 0.0 1042366
18:00+3ssw23895 0.0 1041196
21:000ssw3695100 0.0 104087
12 april, mon
mon1200:00−1ssw3794100 0.0 1038136
03:00−1sw3894100 0.0 1037155
06:00−1wsw3893100 0.0 1037164
09:00+2wsw498462 0.0 1036228
12:00+6wsw596061 0.0 1034333
15:00+7w587098 0.0 1034391
18:00+6w3789100 0.0 1034196
21:00+4nnw3796100 0.0 1035128
13 april, tue
tue1300:00+3n3492100 0.0 103660
03:00+2n3891100 0.0 1037121
06:00+1nne33855 0.0 103936
09:00+4nnw24770 0.0 1040187
12:00+7nnw34504 0.0 1040630
15:00+9nw34455 0.0 1039844
18:00+9wnw45515 0.0 1038786
21:00+6wsw34725 0.0 103863
14 april, wed
wed1400:00+4w34750 0.0 103862
03:00+3wsw35805 0.0 103776
06:00+2sw47815 0.0 103691
09:00+5wsw48635 0.0 1035240
12:00+10wsw6844100 0.0 1033568
15:00+12wsw6842100 0.0 1031789
18:00+12wsw5852100 0.0 1029709
21:00+9wsw4870100 0.0 1028140
15 april, thu
thu1500:00+7wsw47765 0.0 102794
03:00+6w35795 0.0 102572
06:00+5w34850 0.0 102560
09:00+9w36790 0.0 1024191
12:00+14w45682 0.0 1023598
15:00+17w56565 0.0 10211131
18:00+17w575840 0.0 10191362
21:00+13wsw377559 0.0 1019103